sat.trackr.live / text

‹ back to catalog

UNKNOWN

NORAD 89379

UNKNOWN UNKNOWN UNKNOWN

§ Identity

Operator
Country
Launch date
Launch site
Launch vehicle
Mass (kg)
RCS (m²)

External: N2YO · Heavens-Above

§ Orbital elements

Epoch: 2026-05-22T08:18:31.446720Z

Period
105.57 min
Inclination
100.4706°
Eccentricity
0.0049955
Mean motion
13.64027873 rev/d
Perigee alt
984.1 km
Apogee alt
1,058.1 km
Semi-major
7,399.2 km
B*
5.4211e-3
RAAN
174.6866°
Arg perigee
94.8705°
Mean anomaly
265.8141°
Rev number
60,266

§ Raw data

UNKNOWN1 89379U          26142.34619730  .00004306  00000+0  54211-2 0  99912 89379 100.4706 174.6866 0049955  94.8705 265.8141 13.64027873602667

JSON: /api/v1/satellites/89379 · /tle

For live sub-satellite position, see the globe view (requires WebGL).

§ Visibility from observer

Set your observer location to see the next 7 days of passes ≥ 10°. The values pass through the URL so the page stays shareable.

No JS? Fill the form by hand. The geolocation button needs JavaScript.